Regional Weather Roundup
Issued by NWS

Home | Current Version | Previous Version | Graphics & Text | Print | Product List | Glossary On
Versions: 1 2 3 4 5 6 7 8 9 10 11 12 13 14 15 16 17 18 19 20 21 22 23 24 25 26 27 28 29 30 31 32 33 34 35 36 37 38 39 40 41 42 43 44 45 46 47 48 49 50
229
ASUS43 KDMX 241201
RWRIA

WEATHER ROUNDUP FOR IOWA
NATIONAL WEATHER SERVICE DES MOINES IA
700 AM CDT MON JUL 24 2017

NOTE: "FAIR" INDICATES FEW OR NO CLOUDS BELOW 12,000 FEET WITH NO
SIGNIFICANT WEATHER AND/OR OBSTRUCTIONS TO VISIBILITY.

* - THESE STATIONS ARE NOT NWS STATIONS...THUS NOT UNDER NWS
QUALITY CONTROL.  THEY ALSO DO NOT REPORT WEATHER SUCH
AS PRECIPITATION OR FOG.

IAZ001>003-012>014-020>022-031>034-043>046-241300-
   NORTHWEST IOWA

CITY           SKY/WX    TMP DP  RH WIND       PRES   REMARKS
CARROLL *      CLEAR     59  59 100 CALM      30.04S
CHEROKEE *     CLEAR     56  56 100 CALM      30.06R
DENISON *      CLEAR     57  57 100 CALM      30.07R FOG
ORANGE CITY *  CLEAR     61  57  88 CALM      30.06S
SHELDON *      CLEAR     55  55 100 CALM      30.05S FOG
SIOUX CITY     CLEAR     58  58 100 S3        30.04F
6HR MIN TEMP:  56; 6HR MAX TEMP:  64;

SPENCER        MOCLDY    57  55  93 CALM      30.06S FOG
6HR MIN TEMP:  53; 6HR MAX TEMP:  58;

STORM LAKE *   CLEAR     59  57  94 E5        30.06S
$$

IAZ055>058-069>071-079>083-090>094-241300-
   SOUTHWEST IOWA

CITY           SKY/WX    TMP DP  RH WIND       PRES   REMARKS
ATLANTIC *     CLEAR     57  57 100 N3        30.04S
AUDUBON *      CLEAR     57  55  94 CALM      30.05S
CLARINDA *     CLEAR     61  61 100 N3        30.05R
COUNCIL BLFS * CLEAR     61  61 100 NE6       30.04R
CRESTON *      CLEAR     63  59  88 NE7       30.05R FOG
HARLAN  *      PTCLDY    59  59 100 N3        30.08R
LAMONI         CLEAR     62  61  96 N7        30.03R
6HR MIN TEMP:  61; 6HR MAX TEMP:  67;

RED OAK *      CLEAR     61  61 100 CALM      30.03S
SHENANDOAH *   CLEAR     61  61 100 CALM      30.03R
$$

IAZ047>049-059>061-072>074-084-241300-
   CENTRAL IOWA

CITY           SKY/WX    TMP DP  RH WIND       PRES   REMARKS
AMES           CLEAR     62  61  96 N3        30.04R
6HR MIN TEMP:  60; 6HR MAX TEMP:  64;

ANKENY *       CLEAR     61  59  94 N5        30.04R
BOONE *        CLEAR     61  59  94 N5        30.04R
CHARITON *     CLEAR     61  59  94 N3        30.02R
DES MOINES     CLEAR     65  60  84 NE7       30.02R
6HR MIN TEMP:  64; 6HR MAX TEMP:  70;

GRINNELL*      CLEAR     61  58  92 N6        30.04R
KNOXVILLE *    CLEAR     64  61  88 N3        30.01R
MARSHALLTOWN   CLEAR     60  59  96 N6        30.02R
6HR MIN TEMP:  57; 6HR MAX TEMP:  64;

NEWTON *       CLEAR     61  59  94 N7        30.03R
PELLA *          N/A     62  59  92 CALM      30.03R
$$

IAZ004>006-015-016-023>025-035-036-241300-
   NORTH CENTRAL IOWA

CITY           SKY/WX    TMP DP  RH WIND       PRES   REMARKS
ALGONA *       CLEAR     57  57 100 CALM      30.06S
CLARION *      CLEAR     57  57 100 N3        30.05S
ESTHERVILLE    FOG       55  55 100 CALM      30.06R VSB 1/4
6HR MIN TEMP:  53; 6HR MAX TEMP:  60;

FORT DODGE *   CLEAR     57  55  94 CALM      30.06R
MASON CITY     CLEAR     57  56  96 N5        30.07R
6HR MIN TEMP:  53; 6HR MAX TEMP:  59;

FOREST CITY *    N/A     57  57 100 CALM      30.06R
WEBSTER CITY * CLEAR     57  57 100 NW3       30.04R
IOWA FALLS *     N/A     59  57  94 CALM      30.06R
$$

IAZ007>011-017>019-026>030-037>042-050>054-066-241300-
   NORTHEAST IOWA

CITY           SKY/WX    TMP DP  RH WIND       PRES   REMARKS
CEDAR RAPIDS   MOSUNNY   61  61 100 N6        30.00R
6HR MIN TEMP:  59; 6HR MAX TEMP:  63;

CHARLES CITY * SUNNY     59  59 100 NE7       30.04S
DECORAH *      SUNNY     59  59 100 VRB3      30.04R
DUBUQUE        MOSUNNY   61  57  87 NE9       30.03R
6HR MIN TEMP:  60; 6HR MAX TEMP:  65;

MONTICELLO *   CLOUDY    63  61  94 CALM      30.01S
OELWEIN *        N/A    N/A N/A N/A MISG        N/A
WATERLOO       SUNNY     59  57  93 NW3       30.02R
6HR MIN TEMP:  57; 6HR MAX TEMP:  61;

$$

IAZ064-065-067-068-078-241300-
   EAST CENTRAL IOWA

CITY           SKY/WX    TMP DP  RH WIND       PRES   REMARKS
DAVENPORT      SUNNY     65  63  93 NE6       30.01R
6HR MIN TEMP:  61; 6HR MAX TEMP:  65;

IOWA CITY      SUNNY     66  61  84 N7        30.01R
6HR MIN TEMP:  65; 6HR MAX TEMP:  72;

MUSCATINE *    SUNNY     64  63  94 CALM      30.00R
QUAD CITIES    PTSUNNY   69  64  84 NE10      29.98R
6HR MIN TEMP:  66; 6HR MAX TEMP:  71;

$$

IAZ062-063-075>077-085>089-095>099-241300-
   SOUTHEAST IOWA

CITY           SKY/WX    TMP DP  RH WIND       PRES   REMARKS
BURLINGTON     SUNNY     65  63  93 N7        29.98R
6HR MIN TEMP:  64; 6HR MAX TEMP:  68;

FAIRFIELD *    SUNNY     63  59  88 N6        30.00R
FORT MADISON * SUNNY     63  63 100 CALM      30.00R
KEOKUK *       SUNNY     64  63  94 N5        29.98R
OSKALOOSA *      N/A     61  59  95 N5        30.02R
OTTUMWA        CLEAR     63  60  90 N8        30.00R
6HR MIN TEMP:  61; 6HR MAX TEMP:  65;

WASHINGTON *   SUNNY     64  63  94 N6        30.01R
$$

ABBREVIATIONS USED IN REMARKS
   TC - TEMPERATURES IN CELSIUS
  WCI - WIND CHILL INDEX
   HX - HEAT INDEX
  VSB - VISIBILITY
$$





USA.gov is the U.S. government's official web portal to all federal, state and local government web resources and services.